This is the latest recevied weather packets stored in our database for station/object VE3TEJ. If no packets are shown the sender has not sent any weather packets the latest 10 day(s).
| Time | Temp. | Humidity | Pressure | Rain* | Wind** | Luminosity | Snow |
|---|---|---|---|---|---|---|---|
| 1777997348 | 13.89° C | 61% | 1004.7 hPa | 0 mm | - | - | - |
| 1777997047 | 13.89° C | 61% | 1004.9 hPa | 0 mm | - | - | - |
| 1777996749 | 13.89° C | 60% | 1005 hPa | 0 mm | - | - | - |
| 1777996448 | 14.44° C | 59% | 1004.8 hPa | 0 mm | - | - | - |
| 1777996148 | 14.44° C | 58% | 1004.8 hPa | 0 mm | - | - | - |
| 1777995847 | 13.89° C | 64% | 1004.6 hPa | 0 mm | - | - | - |
| 1777995547 | 13.33° C | 63% | 1004.9 hPa | 0 mm | - | - | - |
| 1777995248 | 12.78° C | 63% | 1005.1 hPa | 0 mm | - | - | - |
| 1777994948 | 12.78° C | 63% | 1005.1 hPa | 0 mm | - | - | - |
| 1777994648 | 13.33° C | 63% | 1004.8 hPa | 0 mm | - | - | - |
| 1777994347 | 13.89° C | 63% | 1004.6 hPa | 0 mm | - | - | - |
| 1777994049 | 13.89° C | 63% | 1004.5 hPa | 0 mm | - | - | - |
| 1777993748 | 14.44° C | 63% | 1004.2 hPa | 0 mm | - | - | - |
| 1777993448 | 14.44° C | 63% | 1003.7 hPa | 0 mm | - | - | - |
| 1777993147 | 14.44° C | 63% | 1003.7 hPa | 0 mm | - | - | - |
| 1777992847 | 13.89° C | 64% | 1003.5 hPa | 0 mm | - | - | - |
| 1777992549 | 14.44° C | 65% | 1003.3 hPa | 0 mm | - | - | - |
| 1777992248 | 13.89° C | 64% | 1003 hPa | 0 mm | - | - | - |
| 1777991948 | 13.89° C | 65% | 1003.4 hPa | 0 mm | - | - | - |
| 1777991647 | 13.33° C | 66% | 1003.5 hPa | 0 mm | - | - | - |
| 1777991347 | 14.44° C | 64% | 1003.5 hPa | 0 mm | - | - | - |
| 1777991047 | 13.33° C | 67% | 1003.3 hPa | 0 mm | - | - | - |
| 1777990749 | 12.78° C | 67% | 1003.3 hPa | 0 mm | - | - | - |
| 1777990448 | 12.78° C | 68% | 1003.4 hPa | 0 mm | - | - | - |
| 1777989847 | 13.33° C | 66% | 1002.9 hPa | 0 mm | - | - | - |
* Rain latest hour (hover to see other rain measurements)
** Current wind speed in m/s (hover to see current wind gust speed)